Cheboygan, MI

12:27 AM EDT on April 30, 2017 (GMT -0400)
Cheboygan

Weather History for KSLH - April, 2014

Change the Weather History Date:

Monday, April 28, 2014

  Actual Average (KMCD) Record (KMCD)
Temperature  
Mean Temperature 42 °F -  
Max Temperature 51 °F 51 °F 72 °F (1990)
Min Temperature 34 °F 34 °F 25 °F (1982)
Degree Days  
Heating Degree Days 22    
Moisture  
Dew Point 27 °F    
Average Humidity 54    
Maximum Humidity 86    
Minimum Humidity 36    
Precipitation  
Precipitation 0.00 in - - ()
Sea Level Pressure  
Sea Level Pressure 30.11 in    
Wind  
Wind Speed 14 mph (East)    
Max Wind Speed 26 mph    
Max Gust Speed 37 mph    
Visibility 10 miles    
Events      
Averages and records for this station are not official NWS values.
T = Trace of Precipitation, MM = Missing Value Source: NWS Daily Summary

Daily Weather History Graph

Daily Weather History Graph

Search for Another Location

Airport or City:

Trip Planner

Search our weather history database for the weather conditions in past years. The results will help you decide how hot, cold, wet, or windy it might be!

Date:

Astronomy

Apr. 28, 2014 Rise Set
Actual Time 6:30 AM EDT 8:41 PM EDT
Civil Twilight 5:58 AM EDT 9:14 PM EDT
Nautical Twilight 5:17 AM EDT 9:54 PM EDT
Astronomical Twilight 4:33 AM EDT 10:39 PM EDT
Moon 6:11 AM EDT (4/28) 8:17 PM EDT (4/28)
Length of Visible Light 15h 15m
Length of Day
14h 10m
Waning Crescent, 0% of the Moon is Illuminated
Apr 28
Waning Crescent
Apr 29
New
May 6
First Quarter
May 14
Full
May 21
Last Quarter

Hourly Weather History & Observations

Time (EDT) Temp. Windchill Dew Point Humidity Pressure Visibility Wind Dir Wind Speed Gust Speed Precip Events Conditions
12:15 AM 34.9 °F 29.9 °F 30.9 °F 85% 30.21 in 10.0 mi ENE 5.8 mph - N/A   Mostly Cloudy
12:36 AM 34.9 °F 29.0 °F 31.1 °F 86% 30.20 in 10.0 mi ENE 6.9 mph - N/A   Scattered Clouds
12:55 AM 35.6 °F 29.2 °F 31.5 °F 85% 30.21 in 10.0 mi ENE 8.1 mph - N/A   Mostly Cloudy
1:15 AM 35.8 °F 27.8 °F 31.1 °F 83% 30.19 in 10.0 mi ENE 11.5 mph - N/A   Overcast
1:36 AM 36.5 °F 29.2 °F 30.0 °F 77% 30.19 in 10.0 mi East 10.4 mph - N/A   Overcast
1:55 AM 36.7 °F 29.9 °F 29.7 °F 76% 30.19 in 10.0 mi East 9.2 mph - N/A   Overcast
2:15 AM 36.5 °F 29.2 °F 30.0 °F 77% 30.17 in 10.0 mi East 10.4 mph 16.1 mph N/A   Overcast
2:36 AM 37.0 °F 28.9 °F 29.3 °F 74% 30.15 in 10.0 mi East 12.7 mph - N/A   Overcast
2:55 AM 37.4 °F 29.3 °F 28.4 °F 70% 30.16 in 10.0 mi East 12.7 mph 18.4 mph N/A   Scattered Clouds
3:15 AM 37.9 °F 30.5 °F 27.7 °F 67% 30.18 in 10.0 mi East 11.5 mph 18.4 mph N/A   Scattered Clouds
3:35 AM 40.1 °F 32.7 °F 25.2 °F 55% 30.20 in 10.0 mi East 12.7 mph 27.6 mph N/A   Mostly Cloudy
4:15 AM 39.4 °F 30.7 °F 25.2 °F 57% 30.21 in 10.0 mi East 16.1 mph 27.6 mph N/A   Overcast
4:35 AM 39.2 °F 30.8 °F 25.0 °F 57% 30.19 in 10.0 mi East 15.0 mph 24.2 mph N/A   Mostly Cloudy
4:55 AM 38.7 °F 30.1 °F 25.2 °F 58% 30.19 in 10.0 mi East 15.0 mph 21.9 mph N/A   Scattered Clouds
5:16 AM 38.3 °F 30.1 °F 25.5 °F 60% 30.18 in 10.0 mi East 13.8 mph 23.0 mph N/A   Clear
5:35 AM 37.6 °F 28.8 °F 26.1 °F 63% 30.19 in 10.0 mi East 15.0 mph 19.6 mph N/A   Clear
5:55 AM 37.4 °F 28.9 °F 26.2 °F 64% 30.18 in 10.0 mi East 13.8 mph 19.6 mph N/A   Clear
6:16 AM 36.5 °F 28.7 °F 26.6 °F 67% 30.18 in 10.0 mi East 11.5 mph 19.6 mph N/A   Clear
6:35 AM 36.1 °F 26.9 °F 26.6 °F 68% 30.17 in 10.0 mi East 15.0 mph 21.9 mph N/A   Clear
6:55 AM 36.1 °F 25.9 °F 26.6 °F 68% 30.17 in 10.0 mi East 18.4 mph 23.0 mph N/A   Clear
7:16 AM 36.7 °F 27.6 °F 26.6 °F 67% 30.18 in 10.0 mi East 15.0 mph 21.9 mph N/A   Clear
7:35 AM 37.2 °F 28.7 °F 26.4 °F 65% 30.18 in 10.0 mi East 13.8 mph 23.0 mph N/A   Clear
7:55 AM 37.9 °F 28.5 °F 26.6 °F 64% 30.19 in 10.0 mi East 17.3 mph 25.3 mph N/A   Clear
8:35 AM 40.3 °F 32.2 °F 27.3 °F 60% 30.18 in 10.0 mi East 15.0 mph 26.5 mph N/A   Clear
8:55 AM 39.7 °F 31.5 °F 27.0 °F 60% 30.18 in 10.0 mi East 15.0 mph 32.2 mph N/A   Clear
9:15 AM 40.1 °F 32.0 °F 27.1 °F 60% 30.18 in 10.0 mi East 15.0 mph 27.6 mph N/A   Clear
9:35 AM 41.4 °F 32.4 °F 27.3 °F 57% 30.17 in 10.0 mi East 19.6 mph 29.9 mph N/A   Clear
9:56 AM 41.7 °F 32.9 °F 27.9 °F 58% 30.17 in 10.0 mi East 19.6 mph 26.5 mph N/A   Clear
10:15 AM 42.6 °F 34.0 °F 27.9 °F 56% 30.15 in 10.0 mi East 19.6 mph 26.5 mph N/A   Clear
10:56 AM 44.1 °F 35.9 °F 28.4 °F 54% 30.16 in 10.0 mi East 19.6 mph 26.5 mph N/A   Clear
11:16 AM 44.8 °F 37.4 °F 28.4 °F 53% 30.16 in 10.0 mi East 17.3 mph 28.8 mph N/A   Clear
11:35 AM 45.1 °F 36.9 °F 28.4 °F 52% 30.15 in 10.0 mi East 21.9 mph 31.1 mph N/A   Clear
11:55 AM 45.5 °F 37.3 °F 28.0 °F 51% 30.13 in 10.0 mi East 21.9 mph 32.2 mph N/A   Clear
12:15 PM 46.2 °F 38.5 °F 28.2 °F 50% 30.14 in 10.0 mi East 20.7 mph 26.5 mph N/A   Clear
12:35 PM 47.5 °F - 28.4 °F 48% 30.14 in 10.0 mi East 18.4 mph 31.1 mph N/A   Clear
12:56 PM 48.0 °F - 27.9 °F 46% 30.12 in 10.0 mi East 19.6 mph 28.8 mph N/A   Clear
1:35 PM 46.9 °F - 29.8 °F 51% 30.11 in 10.0 mi ENE 20.7 mph 28.8 mph N/A   Clear
1:56 PM 48.6 °F - 30.6 °F 50% 30.10 in 10.0 mi East 15.0 mph 26.5 mph N/A   Clear
2:15 PM 50.0 °F - 27.0 °F 41% 30.10 in 10.0 mi East 16.1 mph 26.5 mph N/A   Clear
2:35 PM 49.1 °F - 24.4 °F 38% 30.10 in 10.0 mi East 26.5 mph 36.8 mph N/A   Clear
2:56 PM 49.5 °F - 24.4 °F 38% 30.09 in 10.0 mi East 25.3 mph 35.7 mph N/A   Clear
3:15 PM 50.5 °F - 25.7 °F 38% 30.08 in 10.0 mi East 24.2 mph 33.4 mph N/A   Clear
3:55 PM 51.1 °F - 25.0 °F 36% 30.07 in 10.0 mi East 23.0 mph 31.1 mph N/A   Clear
4:15 PM 51.1 °F - 25.0 °F 36% 30.07 in 10.0 mi East 20.7 mph 32.2 mph N/A   Clear
4:36 PM 50.5 °F - 24.3 °F 36% 30.07 in 10.0 mi East 25.3 mph 31.1 mph N/A   Clear
5:15 PM 49.6 °F - 24.1 °F 37% 30.05 in 10.0 mi East 21.9 mph 26.5 mph N/A   Clear
5:36 PM 49.3 °F - 23.5 °F 36% 30.05 in 10.0 mi East 18.4 mph 26.5 mph N/A   Clear
5:55 PM 49.3 °F - 23.7 °F 37% 30.05 in 10.0 mi East 16.1 mph 27.6 mph N/A   Clear
6:15 PM 49.1 °F - 23.4 °F 36% 30.05 in 10.0 mi East 18.4 mph 25.3 mph N/A   Clear
6:36 PM 48.7 °F - 23.7 °F 38% 30.03 in 10.0 mi East 15.0 mph 21.9 mph N/A   Clear
6:55 PM 49.1 °F - 23.9 °F 37% 30.03 in 10.0 mi East 13.8 mph 21.9 mph N/A   Clear
7:15 PM 49.1 °F - 24.1 °F 38% 30.02 in 10.0 mi East 15.0 mph 24.2 mph N/A   Clear
7:36 PM 48.7 °F - 24.1 °F 38% 30.01 in 10.0 mi East 17.3 mph 25.3 mph N/A   Clear
7:55 PM 48.2 °F - 24.4 °F 39% 30.00 in 10.0 mi East 13.8 mph 21.9 mph N/A   Clear
8:15 PM 47.8 °F - 24.4 °F 40% 30.00 in 10.0 mi East 16.1 mph 21.9 mph N/A   Clear
8:35 PM 47.5 °F - 25.0 °F 41% 29.98 in 10.0 mi East 10.4 mph 18.4 mph N/A   Clear
8:55 PM 46.9 °F - 25.5 °F 43% 29.96 in 10.0 mi East 16.1 mph - N/A   Clear
9:16 PM 44.6 °F 38.4 °F 28.0 °F 52% 29.96 in 10.0 mi East 12.7 mph 19.6 mph N/A   Clear
9:35 PM 45.5 °F 39.9 °F 27.7 °F 50% 29.97 in 10.0 mi East 11.5 mph 18.4 mph N/A   Clear
9:55 PM 46.9 °F - 27.0 °F 46% 29.98 in 10.0 mi East 12.7 mph - N/A   Clear
10:16 PM 46.6 °F - 28.0 °F 49% 29.96 in 10.0 mi East 18.4 mph 24.2 mph N/A   Clear
10:35 PM 45.0 °F 38.2 °F 28.8 °F 53% 29.99 in 10.0 mi East 15.0 mph 24.2 mph N/A   Clear
10:55 PM 45.3 °F 39.7 °F 28.4 °F 52% 29.99 in 10.0 mi East 11.5 mph - N/A   Clear
11:16 PM 46.0 °F 38.3 °F 27.5 °F 48% 29.98 in 10.0 mi East 20.7 mph 27.6 mph N/A   Scattered Clouds
11:35 PM 45.5 °F 37.8 °F 27.9 °F 50% 29.96 in 10.0 mi East 19.6 mph 33.4 mph N/A   Mostly Cloudy
11:55 PM 43.9 °F 36.2 °F 29.3 °F 57% 29.96 in 10.0 mi East 17.3 mph 25.3 mph N/A   Scattered Clouds